Regional Weather Roundup
Issued by NWS Charleston, WV

Home | Current Version | Previous Version | Graphics & Text | Print | Product List | Glossary On
Versions: 1 2 3 4 5 6 7 8 9 10 11 12 13 14 15 16 17 18 19 20 21 22 23 24 25 26 27 28 29 30 31 32 33 34 35 36 37 38 39 40 41 42 43 44 45 46 47 48 49 50
000
ASUS41 KRLX 060310
RWRRLX
West Virginia Regional Weather Roundup
National Weather Service Charleston WV
1100 PM EDT THU MAY 05 2016

Note: "fair" indicates few or no clouds below 12,000 feet with no
significant weather and/or obstructions to visibility.

WVZ003-060400-
Northern Panhandle of West Virginia

CITY           SKY/WX    TMP DP  RH WIND       PRES   REMARKS
WHEELING         N/A     51  45  79 N8        29.77R
$$

WVZ009-060400-
Northwest West Virginia

CITY           SKY/WX    TMP DP  RH WIND       PRES   REMARKS
PARKERSBURG    CLOUDY    52  50  93 VRB3      29.81R
$$

WVZ006-060400-
Western West Virginia

CITY           SKY/WX    TMP DP  RH WIND       PRES   REMARKS
HUNTINGTON       N/A     51  46  83 NW8       29.82R
$$

WVZ015-060400-
West Central West Virginia

CITY           SKY/WX    TMP DP  RH WIND       PRES   REMARKS
CHARLESTON     DRIZZLE   51  48  89 W3        29.79S
$$

WVZ022-031-060400-
North Central West Virginia

CITY           SKY/WX    TMP DP  RH WIND       PRES   REMARKS
CLARKSBURG     CLOUDY    51  48  89 NW3       29.74S
MORGANTOWN     CLOUDY    52  47  83 CALM      29.75R HAZE
$$

WVZ025-035-042-045-060400-
Southern West Virginia

CITY           SKY/WX    TMP DP  RH WIND       PRES   REMARKS
BECKLEY        LGT RAIN  44  43  96 W5        29.77R
LOGAN          NOT AVBL
BLUEFIELD      LGT RAIN  41  40  96 W7        29.78R
LEWISBURG      DRIZZLE   44  42  94 CALM      29.74S
$$

WVZ047-060400-
Northern Mountains of West Virginia

CITY           SKY/WX    TMP DP  RH WIND       PRES   REMARKS
ELKINS         CLOUDY    48  45  89 CALM      29.74R
$$

WVZ052-060400-
Eastern Panhandle of West Virginia

CITY           SKY/WX    TMP DP  RH WIND       PRES   REMARKS
MARTINSBURG    LGT RAIN  52  48  86 N5        29.70R
PETERSBURG     LGT RAIN  54  51  90 CALM      29.73R
$$



USA.gov is the U.S. government's official web portal to all federal, state and local government web resources and services.